Wind_Speed
24 26 25 24 26 26 24 22 23 24 23 21 21 22 21 21 20 20 19 18 18 18 19 17 14 16 17 18 18 18 19 22 24 23 21 20 20 23 19 19 20 20 19
32 27 27 26 27 27 25 23 22 23 22 20 18 19 19 18 17 16 15 15 16 16 16 15 15 14 14 17 18 17 16 18 20 21 20 19 18 17 20 19 19 20 18
34 28 27 27 27 27 25 22 20 18 19 19 16 16 17 15 14 14 13 12 13 13 13 13 14 12 12 11 14 16 16 17 20 19 19 20 18 19 15 17 18 17 17
34 30 28 27 26 26 23 21 18 16 15 15 14 13 14 13 11 10 10 10 10 10 10 9 9 11 10 9 9 12 15 16 18 20 16 18 15 16 17 17 16 16 16
32 29 27 26 25 24 22 19 17 16 14 14 12 11 11 10 9 7 7 7 6 6 6 6 5 6 8 8 9 10 12 13 12 11 11 13 17 15 16 16 17 14 13
31 28 27 25 24 23 21 18 17 16 14 13 11 11 9 9 7 6 6 5 3 3 4 3 4 3 5 6 8 12 12 10 8 6 11 14 15 17 16 13 15 14 14
32 29 26 24 24 22 22 20 17 16 15 12 11 9 8 7 5 4 3 2 1 1 2 5 5 5 6 6 9 11 11 8 3 1 17 16 15 17 14 15 13 12 12
31 31 24 22 23 23 21 18 16 15 14 12 10 9 7 6 4 4 2 0 2 3 4 4 5 7 7 9 9 9 10 8 2 6 25 17 15 14 15 12 12 11 10
30 31 26 23 21 21 19 17 17 15 14 11 9 7 6 4 3 2 1 2 3 4 5 5 6 7 8 9 11 11 10 7 5 6 11 19 13 14 14 12 11 10 9
26 28 26 24 23 22 20 19 17 16 15 12 10 7 5 3 1 2 3 4 5 7 7 6 7 7 9 10 11 12 12 10 7 7 12 12 10 12 15 12 11 11 9
23 27 24 24 21 20 20 18 18 15 11 9 8 7 4 2 2 4 6 7 6 8 9 8 8 8 9 9 11 11 11 10 5 6 12 17 13 13 15 12 12 12 10
27 27 26 25 24 21 19 19 16 14 11 8 8 7 2 1 5 8 9 9 8 10 10 10 9 9 9 11 9 10 10 9 6 6 9 15 19 18 17 12 12 13 12
31 27 28 28 26 22 21 19 16 14 10 9 10 11 9 6 3 15 8 7 10 11 12 10 10 13 11 12 10 10 10 6 9 6 15 17 24 19 19 12 12 13 13
30 32 33 28 27 21 22 20 16 15 12 12 12 13 9 12 5 7 10 9 9 9 11 11 13 9 13 13 11 10 13 10 12 14 11 20 23 20 20 14 12 15 16
29 32 29 28 26 22 21 19 15 12 12 10 7 10 10 13 10 11 22 17 15 10 14 12 16 15 16 17 11 15 14 10 5 6 12 14 26 24 23 17 16 16 17
25 30 29 27 25 21 20 18 14 11 9 7 6 7 8 11 12 16 14 12 13 13 11 13 10 11 15 14 14 16 19 13 14 9 15 21 27 28 25 19 18 17 17
31 28 31 27 24 21 18 16 13 12 4 4 5 8 9 10 10 12 14 14 15 14 8 10 11 11 9 12 12 11 20 18 17 21 19 13 25 25 24 23 17 15 17
35 27 30 26 23 20 18 16 15 14 13 6 4 5 8 10 10 12 11 10 8 13 11 12 11 12 13 10 12 7 8 16 16 19 22 19 17 23 21 21 17 17 18
32 28 31 24 23 21 18 17 14 15 12 9 10 10 10 11 12 14 13 11 10 11 14 12 12 12 16 16 7 11 11 9 10 17 19 19 19 16 16 21 20 17 21
32 30 32 29 26 23 19 14 12 11 14 10 11 13 13 14 16 18 15 11 11 10 8 9 10 8 8 4 2 6 6 9 10 10 14 18 23 21 20 20 17 21 21
32 32 34 32 28 26 21 16 14 13 13 14 13 12 14 15 18 21 15 12 9 9 7 7 7 10 8 3 2 4 8 12 10 13 13 16 20 24 22 22 21 21 19
32 32 32 33 29 29 23 17 14 13 13 12 16 16 18 15 15 14 14 13 10 10 11 11 9 8 8 4 4 1 4 8 9 14 19 27 20 22 23 26 24 22 18
31 35 33 28 31 29 22 17 13 11 12 19 12 15 14 16 16 17 16 16 13 14 14 13 12 11 9 9 8 4 1 3 5 9 17 16 25 26 25 28 28 24 20
31 36 33 28 29 27 21 18 18 18 16 15 15 10 17 21 20 19 18 19 17 14 17 15 14 12 13 13 7 11 5 6 2 3 17 26 14 19 18 16 23 27 21
32 34 33 30 28 26 23 22 19 16 13 11 13 10 14 18 14 10 13 15 15 17 18 16 14 10 18 14 14 7 12 13 8 4 3 5 24 19 13 6 15 23 26
33 31 34 33 28 26 24 22 18 14 15 11 7 6 7 11 3 8 19 12 14 18 13 18 18 17 17 17 16 17 14 7 9 7 3 6 7 23 15 14 14 25 27
Wind_Direction
145 143 135 136 136 128 122 115 111 107 101 97 100 99 97 95 91 91 93 97 102 98 96 95 94 100 105 107 107 115 113 116 117 112 109 108 111 110 110 109 107 109 108
148 146 140 140 140 134 130 124 117 115 111 105 101 100 97 94 91 93 93 92 93 98 101 102 100 97 96 112 116 117 117 120 119 115 107 103 108 115 116 112 111 107 108
143 146 142 141 142 141 139 131 123 120 118 115 108 101 97 93 91 91 89 90 91 87 87 95 106 109 107 106 125 126 124 125 125 123 117 115 113 124 126 118 114 115 115
145 146 145 141 142 146 145 141 134 126 124 120 118 109 103 98 94 93 92 88 87 88 90 88 97 112 124 130 135 139 137 137 137 128 121 119 120 120 121 117 117 118 117
140 147 145 143 141 144 148 146 142 132 128 127 125 118 108 104 100 96 87 82 85 91 96 106 111 114 135 150 156 154 158 155 152 162 147 144 134 133 131 129 123 118 124
144 148 145 144 140 141 144 143 135 132 132 130 129 120 112 103 96 93 88 78 74 104 121 137 146 159 161 164 168 168 168 174 183 175 159 160 143 135 132 134 134 132 128
147 146 146 145 143 140 143 141 142 135 132 130 124 115 106 98 95 74 75 84 144 179 190 182 180 213 203 199 175 171 176 184 137 71 170 166 155 145 148 147 145 137 134
144 148 149 149 150 146 149 145 140 139 133 134 131 125 118 104 79 53 30 31 226 189 203 205 204 216 221 211 210 200 196 177 67 25 172 180 165 165 157 157 155 147 137
136 144 146 149 149 156 157 148 147 143 137 138 130 125 117 110 91 80 67 263 232 217 199 205 213 216 226 226 224 225 226 224 153 144 232 185 180 172 168 165 166 162 150
146 145 149 151 155 158 161 155 151 145 141 146 147 136 119 139 47 279 238 215 238 229 213 205 229 219 228 226 230 233 238 246 212 172 178 178 193 189 178 175 175 174 173
137 143 156 160 162 166 164 156 153 161 166 168 166 144 120 63 320 287 288 239 224 240 225 212 224 224 230 238 234 242 245 245 210 133 186 210 205 206 190 187 187 189 189
159 162 166 163 168 172 171 173 169 170 177 189 187 174 137 1 282 316 295 233 231 242 234 216 220 224 224 224 232 239 240 244 222 234 210 253 213 213 199 196 197 198 201
171 168 172 171 179 182 182 183 180 190 211 233 238 231 217 246 283 294 267 202 219 241 244 220 223 224 219 223 224 231 233 240 217 244 238 218 205 213 203 201 209 212 210
163 165 168 179 182 188 189 194 200 211 224 241 259 222 209 210 249 286 234 202 222 241 253 237 229 221 222 229 226 219 223 244 249 258 228 224 209 215 213 220 222 216 217
165 167 177 182 189 190 197 206 213 228 247 263 242 217 221 186 206 255 227 249 245 233 236 237 236 219 238 239 221 227 216 235 224 240 255 245 225 220 224 226 226 219 219
168 175 180 187 192 190 203 210 216 233 264 255 234 199 187 189 195 240 215 217 217 243 202 216 229 237 230 249 246 254 221 222 200 209 269 243 226 231 226 221 225 226 224
172 169 181 185 188 193 205 207 202 209 229 232 232 212 225 208 202 192 214 224 227 230 217 220 234 233 254 250 234 245 220 213 210 222 236 225 227 225 227 232 234 235 235
173 176 182 187 190 201 208 206 205 201 212 206 203 216 217 222 207 210 234 239 218 223 233 238 245 244 246 252 253 246 244 235 224 217 221 217 236 232 227 238 239 239 238
180 183 181 183 192 199 205 211 209 207 212 220 219 223 223 226 231 219 241 243 249 250 241 238 249 258 248 238 248 251 241 245 265 245 235 236 232 233 236 230 234 243 237
180 186 185 188 194 193 197 198 205 212 218 232 245 234 229 232 224 227 242 257 250 249 248 251 249 225 223 219 299 294 268 278 294 234 259 259 254 243 238 243 227 233 234
180 189 190 188 193 189 190 188 202 221 233 234 252 257 238 235 233 229 238 255 254 260 253 243 221 221 239 237 25 304 289 292 269 263 274 284 257 245 237 234 230 222 227
177 183 188 191 191 193 189 188 201 212 220 225 245 246 250 249 238 230 237 245 259 252 253 242 230 205 218 204 204 139 342 321 253 295 288 294 260 261 229 228 228 222 225
178 178 179 181 187 189 185 186 191 181 250 266 248 234 231 234 233 236 236 241 251 249 253 242 239 235 211 209 214 176 176 244 355 335 355 318 291 274 238 229 225 222 222
177 181 180 180 182 189 190 192 194 188 208 236 239 249 233 232 236 238 225 236 237 242 251 250 244 236 228 211 214 211 213 181 168 351 346 322 305 313 229 225 247 222 224
172 177 182 184 191 193 193 195 200 203 216 225 234 232 249 254 268 299 293 293 256 243 247 259 251 239 241 230 215 181 196 211 195 142 195 270 277 282 300 237 248 220 223
175 175 183 184 189 193 196 197 198 200 203 204 215 254 248 267 14 331 298 272 255 257 248 259 258 247 236 242 234 230 226 191 187 179 193 246 249 296 288 260 270 249 226
Height
813 814 817 820 822 825 828 831 832 832 833 835 835 836 838 840 842 844 845 846 846 846 847 847 848 848 849 851 852 853 854 855 856 856 857 857 858 859 862 862 862 863 864
807 814 817 820 823 825 829 833 834 835 837 838 840 840 841 844 846 848 848 848 848 848 849 849 850 850 852 853 855 856 856 857 858 858 859 860 860 861 863 865 865 866 866
807 813 818 821 824 827 830 833 836 837 839 841 843 843 845 848 849 849 850 850 849 850 851 851 851 852 854 855 856 858 858 858 858 858 859 860 862 862 864 865 866 867 868
807 812 817 821 824 827 831 834 836 839 841 843 844 845 846 848 849 850 850 850 850 851 853 855 855 855 855 856 857 858 859 858 859 860 861 861 863 863 863 866 867 868 869
809 813 818 822 825 829 832 834 836 840 843 844 845 846 847 848 850 851 851 851 852 852 854 856 858 858 857 857 857 858 859 861 863 863 865 865 864 865 865 866 867 868 869
811 815 820 824 826 829 832 835 838 840 843 845 846 847 848 850 851 852 852 853 854 854 854 855 857 859 859 858 857 857 859 861 864 866 867 867 866 867 867 868 869 869 870
812 817 821 825 827 830 833 836 839 842 844 845 846 848 850 851 852 853 854 854 854 855 854 855 856 858 859 858 857 857 860 863 868 869 868 870 869 868 870 869 869 869 870
811 817 823 826 828 831 834 836 839 842 844 845 847 849 851 851 852 852 854 855 855 854 854 855 856 856 858 857 858 858 860 866 867 869 868 867 867 869 869 870 869 869 870
813 817 823 828 829 831 833 836 838 841 843 844 847 849 850 850 850 851 852 854 855 855 855 856 856 857 858 859 858 859 860 864 869 867 870 868 869 869 869 869 870 869 870
813 818 823 828 830 831 833 836 839 840 841 843 846 848 848 848 848 849 849 851 853 854 855 856 856 857 858 858 858 858 861 863 868 869 868 869 871 869 869 868 868 869 870
818 820 825 828 830 831 833 836 839 840 840 841 843 846 846 848 847 847 848 850 852 854 855 856 857 857 859 860 857 858 859 861 866 866 863 864 869 870 869 867 867 868 869
818 821 824 826 828 829 833 835 837 838 839 840 841 845 847 846 845 844 845 847 851 853 854 855 855 856 858 857 855 858 859 862 865 866 866 865 867 870 868 865 866 867 868
813 819 822 824 825 827 830 833 836 836 837 838 840 842 845 845 841 838 840 845 851 853 854 854 854 853 855 855 854 856 857 861 862 864 866 867 868 867 865 862 863 865 866
812 815 818 820 823 825 829 831 834 836 836 838 839 841 843 844 843 839 842 848 851 852 851 853 854 852 853 853 852 853 855 855 856 858 861 863 863 864 864 861 860 863 864
809 812 814 817 820 823 827 830 834 836 837 837 837 839 841 844 844 841 845 850 852 847 849 849 852 852 851 853 851 850 853 853 854 856 859 861 864 861 860 858 859 860 861
809 810 812 815 819 823 824 828 833 835 836 836 837 838 839 842 846 846 846 848 848 848 846 847 848 850 849 849 851 851 852 853 856 856 854 856 858 859 858 856 856 857 859
805 807 810 813 817 820 822 826 830 833 833 834 836 838 839 840 842 844 846 848 848 848 845 846 847 848 847 848 849 848 850 851 855 854 855 856 855 855 856 857 855 855 857
801 804 807 811 815 818 820 823 827 830 830 832 834 835 837 839 841 843 845 846 846 846 843 843 846 845 846 846 846 847 847 849 850 850 849 850 849 850 852 854 854 853 853
799 803 806 810 813 816 819 821 824 827 829 830 832 833 834 835 838 842 843 843 844 843 842 842 842 842 843 843 844 845 844 844 844 845 846 846 844 844 847 849 850 851 851
796 801 804 807 811 814 817 820 824 826 828 830 831 831 832 833 834 837 839 840 841 841 841 842 841 839 840 840 840 841 840 838 839 839 840 842 842 842 843 844 846 848 848
793 798 802 806 809 812 816 820 823 825 826 829 831 831 832 831 832 834 836 838 838 839 840 841 839 839 838 839 838 837 834 833 834 835 837 839 839 840 840 841 843 843 844
790 795 799 803 807 811 815 820 821 822 822 824 826 827 828 831 832 834 835 834 836 837 839 842 840 835 837 838 838 839 838 831 829 831 834 835 836 836 836 838 839 840 840
786 791 796 799 804 810 814 818 820 819 815 820 822 823 825 826 826 827 829 830 831 834 836 838 839 837 837 837 837 839 843 840 835 831 833 833 835 833 831 832 833 835 836
782 786 791 797 802 807 811 814 814 815 818 817 818 821 821 820 820 823 823 825 828 830 833 834 834 834 835 834 835 836 836 834 836 838 828 830 831 832 827 824 830 830 832
777 781 786 793 799 802 807 811 812 814 815 816 817 819 819 821 828 830 831 825 825 827 829 830 831 833 832 831 833 833 832 831 831 835 839 833 827 825 823 823 827 828 828
774 776 781 788 795 800 802 805 808 811 813 814 817 817 819 820 821 818 819 815 820 824 825 827 828 828 830 829 829 828 826 825 826 832 832 828 828 820 818 819 823 827 825